San Juan, PR

8:24 AM AST on July 23, 2017 (GMT -0400)
Luis Munoz Marin International

Weather History for TJSJ - August, 2014

Change the Weather History Date:

Wednesday, August 6, 2014

  Actual Average Record
Temperature  
Mean Temperature 85 °F 84 °F  
Max Temperature 90 °F 89 °F 93 °F (1995)
Min Temperature 79 °F 78 °F 69 °F (1904)
Degree Days  
Heating Degree Days 0 0  
Month to date heating degree days 0 0  
Since 1 June heating degree days 0 0  
Since 1 July heating degree days 0 0  
Cooling Degree Days 20 19  
Month to date cooling degree days 110 114  
Year to date cooling degree days 3753 3398  
Since 1 June cooling degree days 1347 1233  
Growing Degree Days 34 (Base 50)    
Moisture  
Dew Point 76 °F    
Average Humidity 80    
Maximum Humidity 97    
Minimum Humidity 63    
Precipitation  
Precipitation 0.04 in 0.14 in 4.05 in (1955)
Month to date precipitation 1.71 0.89  
Year to date precipitation 24.46 29.05  
Sea Level Pressure  
Sea Level Pressure 30.02 in    
Wind  
Wind Speed 11 mph (East)    
Max Wind Speed 23 mph    
Max Gust Speed 29 mph    
Visibility 10 miles    
Events      
T = Trace of Precipitation, MM = Missing Value Source: NWS Daily Summary

Daily Weather History Graph

Daily Weather History Graph

Search for Another Location

Airport or City:

Trip Planner

Search our weather history database for the weather conditions in past years. The results will help you decide how hot, cold, wet, or windy it might be!

Date:

Astronomy

Aug. 06, 2014 Rise Set
Actual Time 6:03 AM AST 6:56 PM AST
Civil Twilight 5:40 AM AST 7:19 PM AST
Nautical Twilight 5:13 AM AST 7:46 PM AST
Astronomical Twilight 4:45 AM AST 8:13 PM AST
Moon 3:03 PM AST (8/6) 1:39 AM AST (8/6)
Length of Visible Light 13h 38m
Length of Day
12h 52m
Waxing Gibbous, 77% of the Moon is Illuminated
Aug 6
Waxing Gibbous
Aug 10
Full
Aug 17
Last Quarter
Aug 25
New
Sep 2
First Quarter

Hourly Weather History & Observations

Time (AST) Temp. Heat Index Dew Point Humidity Pressure Visibility Wind Dir Wind Speed Gust Speed Precip Events Conditions
12:56 AM 81.0 °F 87.9 °F 77.0 °F 88% 30.02 in 10.0 mi SE 3.5 mph - N/A   Scattered Clouds
1:56 AM 80.1 °F 85.8 °F 77.0 °F 90% 30.01 in 10.0 mi East 3.5 mph - N/A   Partly Cloudy
2:56 AM 80.1 °F 85.8 °F 77.0 °F 90% 30.01 in 10.0 mi East 6.9 mph - N/A   Partly Cloudy
3:56 AM 79.0 °F - 77.0 °F 94% 30.01 in 10.0 mi East 4.6 mph - 0.02 in   Mostly Cloudy
4:56 AM 79.0 °F - 77.0 °F 94% 30.01 in 10.0 mi ESE 4.6 mph - 0.02 in   Mostly Cloudy
5:56 AM 79.0 °F - 77.0 °F 94% 30.02 in 10.0 mi Calm Calm - N/A   Scattered Clouds
6:56 AM 80.1 °F 85.8 °F 77.0 °F 90% 30.04 in 10.0 mi Calm Calm - 0.02 in   Scattered Clouds
7:56 AM 81.0 °F 87.9 °F 77.0 °F 88% 30.04 in 10.0 mi East 9.2 mph - N/A   Scattered Clouds
8:56 AM 84.9 °F 95.3 °F 77.0 °F 77% 30.04 in 10.0 mi East 13.8 mph 19.6 mph N/A   Scattered Clouds
9:56 AM 87.1 °F 96.3 °F 75.0 °F 67% 30.05 in 10.0 mi East 13.8 mph - N/A   Scattered Clouds
10:56 AM 88.0 °F 96.5 °F 73.9 °F 63% 30.04 in 10.0 mi East 15.0 mph 24.2 mph 0.01 in   Clear
11:56 AM 89.1 °F 99.1 °F 75.0 °F 63% 30.04 in 10.0 mi ENE 18.4 mph - N/A   Scattered Clouds
12:56 PM 89.1 °F 100.2 °F 75.9 °F 65% 30.02 in 10.0 mi ENE 17.3 mph 26.5 mph N/A   Scattered Clouds
1:56 PM 89.1 °F 100.2 °F 75.9 °F 65% 30.00 in 10.0 mi East 18.4 mph 25.3 mph N/A   Scattered Clouds
2:56 PM 89.1 °F 101.4 °F 77.0 °F 67% 29.99 in 10.0 mi ENE 17.3 mph 27.6 mph N/A   Scattered Clouds
3:56 PM 88.0 °F 98.5 °F 75.9 °F 67% 29.98 in 10.0 mi East 17.3 mph 27.6 mph N/A   Scattered Clouds
4:56 PM 86.0 °F 96.0 °F 75.9 °F 72% 29.98 in 10.0 mi East 18.4 mph - N/A   Scattered Clouds
5:56 PM 84.9 °F 92.1 °F 73.9 °F 69% 29.98 in 10.0 mi East 16.1 mph - N/A   Scattered Clouds
6:56 PM 84.0 °F 91.2 °F 73.9 °F 72% 30.00 in 10.0 mi East 12.7 mph - N/A   Scattered Clouds
7:56 PM 82.9 °F 90.2 °F 75.0 °F 77% 30.01 in 10.0 mi East 10.4 mph - N/A   Partly Cloudy
8:56 PM 82.0 °F 89.4 °F 75.9 °F 82% 30.04 in 10.0 mi East 8.1 mph - N/A   Partly Cloudy
9:56 PM 81.0 °F 86.7 °F 75.0 °F 82% 30.04 in 10.0 mi East 8.1 mph - N/A   Partly Cloudy
10:56 PM 81.0 °F 86.7 °F 75.0 °F 82% 30.06 in 10.0 mi East 9.2 mph - N/A   Partly Cloudy
11:56 PM 80.1 °F 85.4 °F 75.9 °F 87% 30.06 in 10.0 mi East 8.1 mph - N/A   Partly Cloudy